| time (UTC) | temp F | wind direction | speed MPH | gust MPH | rain 1hr in | rain 24hr in | rain mn in | humidity % | barometer mb |
| 20260507093204 | 55 | 275 | 1.0 | 3.0 | 0.00 | 0.00 | 0.00 | 91 | 1019.3 |
| 20260507092205 | 55 | 252 | 1.0 | 2.0 | 0.00 | 0.00 | 0.00 | 91 | 1019.3 |
| 20260507091204 | 55 | 263 | 0.0 | 0.0 | 0.00 | 0.00 | 0.00 | 91 | 1019.4 |
| 20260507090705 | 55 | 180 | 0.0 | 0.0 | 0.00 | 0.00 | 0.00 | 91 | 1019.4 |
| 20260507085704 | 55 | 121 | 0.0 | 0.0 | 0.00 | 0.00 | 0.00 | 91 | 1019.5 |
| 20260507085204 | 55 | 121 | 0.0 | 0.0 | 0.00 | 0.00 | 0.00 | 91 | 1019.5 |
| 20260507084704 | 55 | 121 | 0.0 | 0.0 | 0.00 | 0.00 | 0.00 | 91 | 1019.5 |
| 20260507084204 | 55 | 121 | 0.0 | 0.0 | 0.00 | 0.00 | 0.00 | 91 | 1019.4 |
| 20260507083705 | 55 | 121 | 0.0 | 0.0 | 0.00 | 0.00 | 0.00 | 91 | 1019.5 |
| 20260507083205 | 55 | 121 | 0.0 | 0.0 | 0.00 | 0.00 | 0.00 | 90 | 1019.6 |
| 20260507082204 | 56 | 122 | 0.0 | 0.0 | 0.00 | 0.00 | 0.00 | 90 | 1019.6 |
| 20260507081704 | 56 | 121 | 0.0 | 0.0 | 0.00 | 0.00 | 0.00 | 90 | 1019.6 |
| 20260507081204 | 56 | 121 | 0.0 | 0.0 | 0.00 | 0.00 | 0.00 | 90 | 1019.6 |
| 20260507080705 | 56 | 121 | 0.0 | 0.0 | 0.00 | 0.00 | 0.00 | 90 | 1019.6 |
| 20260507075704 | 56 | 121 | 0.0 | 0.0 | 0.00 | 0.00 | 0.00 | 90 | 1019.8 |
| 20260507075204 | 56 | 121 | 0.0 | 1.0 | 0.00 | 0.00 | 0.00 | 90 | 1019.9 |
| 20260507074704 | 56 | 121 | 0.0 | 1.0 | 0.00 | 0.00 | 0.00 | 90 | 1019.9 |
| 20260507074204 | 56 | 121 | 0.0 | 2.0 | 0.00 | 0.00 | 0.00 | 90 | 1019.9 |
| 20260507073204 | 56 | 121 | 0.0 | 2.0 | 0.00 | 0.00 | 0.00 | 90 | 1020.0 |
| 20260507072204 | 56 | 121 | 0.0 | 3.0 | 0.00 | 0.00 | 0.00 | 90 | 1019.9 |
| 20260507071704 | 56 | 77 | 1.0 | 3.0 | 0.00 | 0.00 | 0.00 | 90 | 1019.9 |
| 20260507071205 | 56 | 77 | 1.0 | 5.0 | 0.00 | 0.00 | 0.00 | 90 | 1019.9 |
| 20260507070704 | 56 | 121 | 1.0 | 5.0 | 0.00 | 0.00 | 0.00 | 90 | 1019.9 |
| 20260507065704 | 56 | 119 | 1.0 | 5.0 | 0.00 | 0.00 | 0.00 | 90 | 1019.9 |
| 20260507065205 | 56 | 117 | 1.0 | 7.0 | 0.00 | 0.00 | 0.00 | 90 | 1019.9 |
| 20260507064705 | 56 | 129 | 2.0 | 7.0 | 0.00 | 0.00 | 0.00 | 90 | 1019.9 |
| 20260507064206 | 56 | 124 | 3.0 | 9.0 | 0.00 | 0.00 | 0.00 | 90 | 1019.7 |
| 20260507063705 | 56 | 135 | 3.0 | 9.0 | 0.00 | 0.00 | 0.00 | 90 | 1019.8 |
| 20260507063205 | 56 | 116 | 3.0 | 9.0 | 0.00 | 0.00 | 0.00 | 90 | 1019.8 |
| 20260507062706 | 56 | 128 | 3.0 | 7.0 | 0.00 | 0.00 | 0.00 | 90 | 1019.9 |
| 20260507062205 | 57 | 69 | 3.0 | 9.0 | 0.00 | 0.00 | 0.00 | 89 | 1019.9 |
| 20260507061205 | 57 | 127 | 4.0 | 8.0 | 0.00 | 0.00 | 0.00 | 89 | 1019.8 |
| 20260507060704 | 57 | 133 | 4.0 | 8.0 | 0.00 | 0.00 | 0.00 | 89 | 1019.8 |
| 20260507060204 | 57 | 142 | 4.0 | 8.0 | 0.00 | 0.00 | 0.00 | 89 | 1019.8 |
| 20260507055704 | 57 | 138 | 5.0 | 9.0 | 0.00 | 0.00 | 0.00 | 89 | 1019.8 |
| 20260507054204 | 57 | 109 | 5.0 | 11.0 | 0.00 | 0.00 | 0.00 | 89 | 1019.9 |
| 20260507053705 | 57 | 143 | 5.0 | 11.0 | 0.00 | 0.00 | 0.00 | 88 | 1019.9 |
| 20260507053204 | 57 | 123 | 4.0 | 10.0 | 0.00 | 0.00 | 0.00 | 88 | 1019.9 |
| 20260507052704 | 57 | 128 | 4.0 | 10.0 | 0.00 | 0.00 | 0.00 | 88 | 1019.8 |
| 20260507052205 | 57 | 119 | 5.0 | 10.0 | 0.00 | 0.00 | 0.00 | 88 | 1020.0 |
| 20260507051705 | 57 | 135 | 4.0 | 9.0 | 0.00 | 0.00 | 0.00 | 88 | 1019.9 |
| 20260507051205 | 58 | 101 | 4.0 | 10.0 | 0.00 | 0.00 | 0.00 | 88 | 1019.9 |
| 20260507050704 | 58 | 111 | 5.0 | 10.0 | 0.00 | 0.00 | 0.00 | 87 | 1019.8 |
| 20260507050204 | 58 | 101 | 4.0 | 12.0 | 0.00 | 0.00 | 0.00 | 87 | 1019.9 |
| 20260507044704 | 58 | 129 | 5.0 | 12.0 | 0.00 | 0.00 | 0.00 | 86 | 1019.8 |
| 20260507043705 | 59 | 102 | 5.0 | 12.0 | 0.00 | 0.00 | 0.00 | 86 | 1019.6 |
| 20260507043206 | 59 | 122 | 6.0 | 11.0 | 0.00 | 0.00 | 0.00 | 85 | 1019.5 |
| 20260507042704 | 59 | 111 | 6.0 | 11.0 | 0.00 | 0.00 | 0.00 | 85 | 1019.4 |
| 20260507042205 | 59 | 121 | 5.0 | 11.0 | 0.00 | 0.00 | 0.00 | 85 | 1019.3 |
| 20260507041704 | 60 | 123 | 5.0 | 11.0 | 0.00 | 0.00 | 0.00 | 84 | 1019.1 |
| 20260507041204 | 60 | 122 | 5.0 | 10.0 | 0.00 | 0.00 | 0.00 | 84 | 1019.0 |
| 20260507040705 | 60 | 89 | 4.0 | 10.0 | 0.00 | 0.00 | 0.00 | 84 | 1019.0 |
| 20260507035204 | 61 | 103 | 4.0 | 13.0 | 0.00 | 0.00 | 0.00 | 83 | 1018.9 |
| 20260507034705 | 61 | 92 | 5.0 | 13.0 | 0.00 | 0.00 | 0.00 | 83 | 1018.8 |
| 20260507034204 | 61 | 95 | 5.0 | 9.0 | 0.00 | 0.00 | 0.00 | 82 | 1018.9 |
| 20260507033704 | 62 | 125 | 3.0 | 8.0 | 0.00 | 0.00 | 0.00 | 82 | 1018.7 |
| 20260507033204 | 62 | 107 | 3.0 | 9.0 | 0.00 | 0.00 | 0.00 | 83 | 1018.7 |
| 20260507032704 | 62 | 136 | 3.0 | 9.0 | 0.00 | 0.00 | 0.00 | 82 | 1018.6 |
| 20260507031704 | 62 | 101 | 3.0 | 11.0 | 0.00 | 0.00 | 0.00 | 81 | 1018.4 |
| 20260507031205 | 62 | 94 | 4.0 | 11.0 | 0.00 | 0.00 | 0.00 | 80 | 1018.3 |
| 20260507030704 | 63 | 108 | 5.0 | 11.0 | 0.00 | 0.00 | 0.00 | 79 | 1018.2 |
| 20260507030204 | 63 | 104 | 4.0 | 8.0 | 0.00 | 0.00 | 0.00 | 78 | 1018.2 |
| 20260507025704 | 63 | 128 | 3.0 | 8.0 | 0.00 | 0.00 | 0.00 | 78 | 1018.1 |
| 20260507025205 | 64 | 109 | 3.0 | 8.0 | 0.00 | 0.00 | 0.00 | 77 | 1018.0 |
| 20260507024704 | 64 | 142 | 4.0 | 8.0 | 0.00 | 0.00 | 0.00 | 77 | 1017.9 |
| 20260507023704 | 65 | 47 | 3.0 | 8.0 | 0.00 | 0.00 | 0.00 | 75 | 1017.8 |
| 20260507023204 | 66 | 111 | 3.0 | 8.0 | 0.00 | 0.00 | 0.00 | 75 | 1017.8 |
| 20260507022704 | 66 | 121 | 3.0 | 8.0 | 0.00 | 0.00 | 0.00 | 75 | 1017.8 |
| 20260507022204 | 66 | 117 | 3.0 | 8.0 | 0.00 | 0.00 | 0.00 | 74 | 1017.8 |
| 20260507021705 | 67 | 86 | 3.0 | 8.0 | 0.00 | 0.00 | 0.00 | 73 | 1017.8 |
| 20260507020205 | 68 | 88 | 3.0 | 10.0 | 0.00 | 0.00 | 0.00 | 71 | 1017.8 |
| 20260507015705 | 68 | 91 | 3.0 | 10.0 | 0.00 | 0.00 | 0.00 | 71 | 1017.8 |
| 20260507015204 | 69 | 71 | 3.0 | 9.0 | 0.00 | 0.00 | 0.00 | 69 | 1017.7 |
| 20260507014704 | 70 | 98 | 4.0 | 9.0 | 0.00 | 0.00 | 0.00 | 68 | 1017.7 |
| 20260507014206 | 71 | 85 | 4.0 | 9.0 | 0.00 | 0.00 | 0.00 | 65 | 1017.8 |
| 20260507013704 | 73 | 83 | 3.0 | 6.0 | 0.00 | 0.00 | 0.00 | 63 | 1017.8 |
| 20260507013204 | 74 | 123 | 2.0 | 4.0 | 0.00 | 0.00 | 0.00 | 61 | 1017.7 |
| 20260507012704 | 75 | 158 | 2.0 | 5.0 | 0.00 | 0.00 | 0.00 | 60 | 1017.8 |
| 20260507012204 | 75 | 200 | 3.0 | 5.0 | 0.00 | 0.00 | 0.00 | 59 | 1017.8 |
| 20260507011704 | 75 | 203 | 3.0 | 5.0 | 0.00 | 0.00 | 0.00 | 59 | 1017.7 |
| 20260507011204 | 75 | 171 | 3.0 | 5.0 | 0.00 | 0.00 | 0.00 | 58 | 1017.6 |
| 20260507010704 | 75 | 211 | 3.0 | 6.0 | 0.00 | 0.00 | 0.00 | 58 | 1017.7 |
| 20260507010205 | 75 | 154 | 3.0 | 7.0 | 0.00 | 0.00 | 0.00 | 59 | 1017.7 |
| 20260507005704 | 75 | 190 | 3.0 | 7.0 | 0.00 | 0.00 | 0.00 | 58 | 1017.8 |
| 20260507005204 | 75 | 218 | 3.0 | 7.0 | 0.00 | 0.00 | 0.00 | 60 | 1017.6 |
| 20260507004704 | 75 | 193 | 3.0 | 7.0 | 0.00 | 0.00 | 0.00 | 59 | 1017.7 |
| 20260507004205 | 75 | 208 | 3.0 | 7.0 | 0.00 | 0.00 | 0.00 | 60 | 1017.6 |
| 20260507003706 | 75 | 126 | 3.0 | 7.0 | 0.00 | 0.00 | 0.00 | 60 | 1017.6 |
| 20260507003204 | 74 | 198 | 3.0 | 7.0 | 0.00 | 0.00 | 0.00 | 61 | 1017.6 |
| 20260507002704 | 74 | 190 | 3.0 | 7.0 | 0.00 | 0.00 | 0.00 | 62 | 1017.7 |
| 20260507001704 | 74 | 180 | 4.0 | 8.0 | 0.00 | 0.00 | 0.00 | 61 | 1017.7 |
| 20260507001204 | 75 | 148 | 4.0 | 9.0 | 0.00 | 0.00 | 0.00 | 60 | 1017.6 |
| 20260507000705 | 75 | 196 | 5.0 | 9.0 | 0.00 | 0.00 | 0.00 | 58 | 1017.6 |
| 20260507000212 | 75 | 193 | 5.0 | 9.0 | 0.00 | 0.00 | 0.00 | 59 | 1017.7 |
| 20260506235205 | 75 | 168 | 5.0 | 9.0 | 0.00 | 0.00 | 0.00 | 60 | 1017.7 |
| 20260506234705 | 75 | 212 | 5.0 | 9.0 | 0.00 | 0.00 | 0.00 | 58 | 1017.7 |
| 20260506233704 | 76 | 215 | 3.0 | 9.0 | 0.00 | 0.00 | 0.00 | 58 | 1017.6 |
| 20260506233205 | 76 | 232 | 3.0 | 9.0 | 0.00 | 0.00 | 0.00 | 57 | 1017.7 |
| 20260506232705 | 75 | 194 | 3.0 | 10.0 | 0.00 | 0.00 | 0.00 | 58 | 1017.8 |
| 20260506231704 | 74 | 217 | 5.0 | 10.0 | 0.00 | 0.00 | 0.00 | 57 | 1017.8 |
| 20260506231205 | 74 | 202 | 5.0 | 10.0 | 0.00 | 0.00 | 0.00 | 58 | 1017.9 |
| 20260506230704 | 75 | 183 | 5.0 | 10.0 | 0.00 | 0.00 | 0.00 | 58 | 1018.0 |
| 20260506225705 | 75 | 244 | 5.0 | 12.0 | 0.00 | 0.00 | 0.00 | 56 | 1018.0 |
| 20260506225204 | 75 | 202 | 4.0 | 12.0 | 0.00 | 0.00 | 0.00 | 57 | 1018.1 |
| 20260506224705 | 75 | 232 | 4.0 | 11.0 | 0.00 | 0.00 | 0.00 | 58 | 1018.3 |
| 20260506224205 | 74 | 200 | 6.0 | 11.0 | 0.00 | 0.00 | 0.00 | 58 | 1018.3 |
| 20260506223704 | 74 | 242 | 5.0 | 12.0 | 0.00 | 0.00 | 0.00 | 57 | 1018.3 |
| 20260506222704 | 74 | 250 | 6.0 | 12.0 | 0.00 | 0.00 | 0.00 | 57 | 1018.4 |
| 20260506222205 | 74 | 188 | 6.0 | 10.0 | 0.00 | 0.00 | 0.00 | 56 | 1018.4 |
| 20260506221705 | 74 | 256 | 5.0 | 13.0 | 0.00 | 0.00 | 0.00 | 56 | 1018.6 |
| 20260506221206 | 74 | 227 | 6.0 | 13.0 | 0.00 | 0.00 | 0.00 | 58 | 1018.6 |
| 20260506220706 | 74 | 256 | 5.0 | 13.0 | 0.00 | 0.00 | 0.00 | 57 | 1018.7 |
| 20260506215704 | 74 | 209 | 6.0 | 12.0 | 0.00 | 0.00 | 0.00 | 58 | 1018.9 |
| 20260506215204 | 73 | 243 | 6.0 | 11.0 | 0.00 | 0.00 | 0.00 | 59 | 1018.9 |
| 20260506214704 | 74 | 203 | 6.0 | 11.0 | 0.00 | 0.00 | 0.00 | 58 | 1018.9 |
| 20260506214204 | 74 | 177 | 5.0 | 11.0 | 0.00 | 0.00 | 0.00 | 58 | 1019.1 |
| 20260506213704 | 74 | 262 | 4.0 | 11.0 | 0.00 | 0.00 | 0.00 | 57 | 1019.1 |
| 20260506213204 | 74 | 211 | 5.0 | 12.0 | 0.00 | 0.00 | 0.00 | 59 | 1019.1 |
| 20260506212205 | 74 | 227 | 6.0 | 13.0 | 0.00 | 0.00 | 0.00 | 59 | 1019.2 |
| 20260506211706 | 73 | 269 | 7.0 | 12.0 | 0.00 | 0.00 | 0.00 | 60 | 1019.3 |
| 20260506211204 | 73 | 252 | 7.0 | 12.0 | 0.00 | 0.00 | 0.00 | 59 | 1019.3 |
| 20260506210704 | 73 | 225 | 6.0 | 12.0 | 0.00 | 0.00 | 0.00 | 60 | 1019.3 |
| 20260506210205 | 73 | 232 | 5.0 | 12.0 | 0.00 | 0.00 | 0.00 | 60 | 1019.3 |
| 20260506205204 | 72 | 198 | 6.0 | 12.0 | 0.00 | 0.00 | 0.00 | 61 | 1019.3 |
| 20260506204704 | 72 | 200 | 6.0 | 12.0 | 0.00 | 0.00 | 0.00 | 61 | 1019.4 |
| 20260506203705 | 71 | 223 | 6.0 | 12.0 | 0.00 | 0.00 | 0.00 | 61 | 1019.6 |
| 20260506202704 | 72 | 244 | 5.0 | 10.0 | 0.00 | 0.00 | 0.00 | 61 | 1019.6 |
| 20260506202204 | 71 | 307 | 5.0 | 11.0 | 0.00 | 0.00 | 0.00 | 62 | 1019.7 |
| 20260506201705 | 71 | 258 | 6.0 | 12.0 | 0.00 | 0.00 | 0.00 | 63 | 1019.7 |
| 20260506201206 | 71 | 223 | 6.0 | 12.0 | 0.00 | 0.00 | 0.00 | 62 | 1019.7 |
| 20260506200704 | 71 | 196 | 5.0 | 11.0 | 0.00 | 0.00 | 0.00 | 61 | 1019.9 |
| 20260506200206 | 71 | 233 | 5.0 | 11.0 | 0.00 | 0.00 | 0.00 | 62 | 1019.9 |
| 20260506195205 | 69 | 196 | 5.0 | 9.0 | 0.00 | 0.00 | 0.00 | 64 | 1020.0 |
| 20260506194704 | 69 | 208 | 4.0 | 9.0 | 0.00 | 0.00 | 0.00 | 63 | 1019.9 |
| 20260506194205 | 69 | 175 | 4.0 | 9.0 | 0.00 | 0.00 | 0.00 | 64 | 1019.9 |
| 20260506193704 | 69 | 194 | 4.0 | 10.0 | 0.00 | 0.00 | 0.00 | 65 | 1020.1 |
| 20260506193205 | 69 | 196 | 5.0 | 10.0 | 0.00 | 0.00 | 0.00 | 64 | 1020.1 |
| 20260506192704 | 68 | 141 | 5.0 | 10.0 | 0.00 | 0.00 | 0.00 | 66 | 1020.2 |
| 20260506192205 | 68 | 204 | 5.0 | 10.0 | 0.00 | 0.00 | 0.00 | 66 | 1020.2 |
| 20260506191705 | 67 | 157 | 5.0 | 10.0 | 0.00 | 0.00 | 0.00 | 67 | 1020.2 |
| 20260506191204 | 67 | 190 | 5.0 | 9.0 | 0.00 | 0.00 | 0.00 | 67 | 1020.2 |
| 20260506190204 | 67 | 208 | 4.0 | 9.0 | 0.00 | 0.00 | 0.00 | 70 | 1020.3 |
| 20260506185204 | 66 | 161 | 6.0 | 9.0 | 0.00 | 0.00 | 0.00 | 70 | 1020.3 |
| 20260506184704 | 65 | 193 | 6.0 | 9.0 | 0.00 | 0.00 | 0.00 | 71 | 1020.4 |
| 20260506184205 | 65 | 205 | 5.0 | 11.0 | 0.00 | 0.00 | 0.00 | 71 | 1020.4 |
| 20260506183705 | 65 | 219 | 5.0 | 11.0 | 0.00 | 0.00 | 0.00 | 72 | 1020.3 |
| 20260506183205 | 64 | 210 | 6.0 | 11.0 | 0.00 | 0.00 | 0.00 | 73 | 1020.4 |
| 20260506182705 | 64 | 224 | 6.0 | 10.0 | 0.00 | 0.00 | 0.00 | 73 | 1020.5 |
| 20260506182204 | 64 | 196 | 6.0 | 10.0 | 0.00 | 0.00 | 0.00 | 73 | 1020.5 |
| 20260506181705 | 63 | 192 | 6.0 | 11.0 | 0.00 | 0.00 | 0.00 | 73 | 1020.6 |
| 20260506181204 | 63 | 191 | 6.0 | 12.0 | 0.00 | 0.00 | 0.00 | 74 | 1020.6 |
| 20260506180706 | 63 | 202 | 7.0 | 12.0 | 0.00 | 0.00 | 0.00 | 75 | 1020.5 |
| 20260506180204 | 63 | 198 | 7.0 | 11.0 | 0.00 | 0.00 | 0.00 | 75 | 1020.6 |
| 20260506175704 | 63 | 182 | 6.0 | 11.0 | 0.00 | 0.00 | 0.00 | 75 | 1020.6 |
| 20260506175204 | 63 | 188 | 6.0 | 10.0 | 0.00 | 0.00 | 0.00 | 75 | 1020.6 |
| 20260506174705 | 63 | 209 | 6.0 | 9.0 | 0.00 | 0.00 | 0.00 | 74 | 1020.6 |
| 20260506174205 | 63 | 225 | 5.0 | 9.0 | 0.00 | 0.00 | 0.00 | 74 | 1020.6 |
| 20260506173706 | 64 | 198 | 4.0 | 10.0 | 0.00 | 0.00 | 0.00 | 75 | 1020.5 |
| 20260506173204 | 64 | 209 | 4.0 | 10.0 | 0.00 | 0.00 | 0.00 | 75 | 1020.6 |
| 20260506172704 | 64 | 225 | 4.0 | 8.0 | 0.00 | 0.00 | 0.00 | 75 | 1020.5 |
| 20260506172205 | 63 | 267 | 4.0 | 8.0 | 0.00 | 0.00 | 0.00 | 76 | 1020.5 |
| 20260506171704 | 64 | 210 | 4.0 | 7.0 | 0.00 | 0.00 | 0.00 | 77 | 1020.5 |
| 20260506171204 | 63 | 259 | 4.0 | 8.0 | 0.00 | 0.00 | 0.00 | 77 | 1020.5 |
| 20260506170704 | 63 | 263 | 4.0 | 8.0 | 0.00 | 0.00 | 0.00 | 77 | 1020.6 |
| 20260506170205 | 63 | 160 | 4.0 | 8.0 | 0.00 | 0.00 | 0.00 | 77 | 1020.6 |
| 20260506165204 | 63 | 197 | 4.0 | 7.0 | 0.00 | 0.00 | 0.00 | 77 | 1020.5 |
| 20260506164705 | 63 | 204 | 3.0 | 7.0 | 0.00 | 0.00 | 0.00 | 78 | 1020.5 |
| 20260506163706 | 63 | 175 | 3.0 | 7.0 | 0.00 | 0.00 | 0.00 | 79 | 1020.6 |
| 20260506163204 | 63 | 196 | 3.0 | 7.0 | 0.00 | 0.00 | 0.00 | 79 | 1020.6 |
| 20260506162705 | 62 | 180 | 3.0 | 6.0 | 0.00 | 0.00 | 0.00 | 79 | 1020.6 |
| 20260506162204 | 62 | 200 | 3.0 | 6.0 | 0.00 | 0.00 | 0.00 | 79 | 1020.6 |
| 20260506161704 | 62 | 160 | 2.0 | 6.0 | 0.00 | 0.00 | 0.00 | 79 | 1020.6 |
| 20260506161204 | 62 | 176 | 2.0 | 4.0 | 0.00 | 0.00 | 0.00 | 80 | 1020.6 |
| 20260506160704 | 62 | 203 | 2.0 | 5.0 | 0.00 | 0.00 | 0.00 | 80 | 1020.6 |
| 20260506155705 | 62 | 207 | 2.0 | 5.0 | 0.00 | 0.00 | 0.00 | 81 | 1020.6 |
| 20260506155205 | 62 | 181 | 2.0 | 5.0 | 0.00 | 0.00 | 0.00 | 82 | 1020.6 |
| 20260506154704 | 61 | 119 | 3.0 | 5.0 | 0.00 | 0.00 | 0.00 | 82 | 1020.7 |
| 20260506154215 | 61 | 133 | 2.0 | 4.0 | 0.00 | 0.00 | 0.00 | 83 | 1020.7 |
| 20260506153705 | 61 | 126 | 2.0 | 5.0 | 0.00 | 0.00 | 0.00 | 83 | 1020.7 |
| 20260506153205 | 61 | 170 | 2.0 | 5.0 | 0.00 | 0.00 | 0.00 | 85 | 1020.6 |
| 20260506152704 | 60 | 124 | 2.0 | 5.0 | 0.00 | 0.00 | 0.00 | 86 | 1020.6 |
| 20260506152205 | 60 | 121 | 1.0 | 5.0 | 0.00 | 0.00 | 0.00 | 86 | 1020.6 |
| 20260506151706 | 60 | 130 | 0.0 | 5.0 | 0.00 | 0.00 | 0.00 | 88 | 1020.6 |
| 20260506151204 | 59 | 150 | 0.0 | 0.0 | 0.00 | 0.00 | 0.00 | 88 | 1020.6 |
| 20260506150205 | 58 | 41 | 0.0 | 0.0 | 0.00 | 0.00 | 0.00 | 90 | 1020.6 |
| 20260506145704 | 58 | 41 | 0.0 | 0.0 | 0.00 | 0.00 | 0.00 | 90 | 1020.7 |
| 20260506145205 | 58 | 5 | 0.0 | 0.0 | 0.00 | 0.00 | 0.00 | 90 | 1020.8 |
| 20260506144706 | 57 | 5 | 0.0 | 0.0 | 0.00 | 0.00 | 0.00 | 90 | 1020.8 |
| 20260506144204 | 57 | 5 | 0.0 | 0.0 | 0.00 | 0.00 | 0.00 | 90 | 1020.8 |
| 20260506143704 | 57 | 5 | 0.0 | 0.0 | 0.00 | 0.00 | 0.00 | 91 | 1020.8 |
| 20260506143204 | 56 | 5 | 0.0 | 0.0 | 0.00 | 0.00 | 0.00 | 91 | 1020.8 |
| 20260506142704 | 56 | 5 | 0.0 | 0.0 | 0.00 | 0.00 | 0.00 | 90 | 1020.8 |
| 20260506142204 | 56 | 5 | 0.0 | 0.0 | 0.00 | 0.00 | 0.00 | 90 | 1020.8 |
| 20260506141705 | 56 | 5 | 0.0 | 0.0 | 0.00 | 0.00 | 0.00 | 91 | 1020.6 |
| 20260506140205 | 56 | 5 | 0.0 | 0.0 | 0.00 | 0.00 | 0.00 | 90 | 1020.5 |
| 20260506135704 | 56 | 5 | 0.0 | 0.0 | 0.00 | 0.00 | 0.00 | 90 | 1020.5 |
| 20260506135205 | 55 | 5 | 0.0 | 0.0 | 0.00 | 0.00 | 0.00 | 90 | 1020.4 |
| 20260506134706 | 55 | 5 | 0.0 | 0.0 | 0.00 | 0.00 | 0.00 | 91 | 1020.3 |
| 20260506133704 | 55 | 5 | 0.0 | 0.0 | 0.00 | 0.00 | 0.00 | 91 | 1020.2 |
| 20260506133204 | 55 | 5 | 0.0 | 0.0 | 0.00 | 0.00 | 0.00 | 91 | 1020.1 |
| 20260506132704 | 55 | 5 | 0.0 | 0.0 | 0.00 | 0.00 | 0.00 | 90 | 1020.1 |
| 20260506132204 | 55 | 5 | 0.0 | 0.0 | 0.00 | 0.00 | 0.00 | 90 | 1020.1 |
| 20260506131705 | 55 | 5 | 0.0 | 0.0 | 0.00 | 0.00 | 0.00 | 90 | 1019.9 |
| 20260506131204 | 55 | 5 | 0.0 | 0.0 | 0.00 | 0.00 | 0.00 | 90 | 1019.8 |
| 20260506130705 | 55 | 24 | 0.0 | 0.0 | 0.00 | 0.00 | 0.00 | 91 | 1019.9 |
| 20260506124705 | 55 | 311 | 0.0 | 0.0 | 0.00 | 0.00 | 0.00 | 91 | 1019.8 |
| 20260506123705 | 55 | 311 | 0.0 | 0.0 | 0.00 | 0.00 | 0.00 | 91 | 1019.8 |
| 20260506123205 | 55 | 311 | 0.0 | 0.0 | 0.00 | 0.00 | 0.00 | 91 | 1019.7 |
| 20260506122705 | 55 | 311 | 0.0 | 0.0 | 0.00 | 0.00 | 0.00 | 91 | 1019.7 |
| 20260506121704 | 55 | 311 | 0.0 | 0.0 | 0.00 | 0.00 | 0.00 | 91 | 1019.7 |
| 20260506120705 | 55 | 311 | 0.0 | 0.0 | 0.00 | 0.00 | 0.00 | 91 | 1019.6 |
| 20260506120204 | 55 | 311 | 0.0 | 0.0 | 0.00 | 0.00 | 0.00 | 91 | 1019.6 |
| 20260506115705 | 55 | 311 | 0.0 | 0.0 | 0.00 | 0.00 | 0.00 | 91 | 1019.5 |
| 20260506115205 | 54 | 311 | 0.0 | 0.0 | 0.00 | 0.00 | 0.00 | 91 | 1019.5 |
| 20260506114705 | 55 | 311 | 0.0 | 0.0 | 0.00 | 0.00 | 0.00 | 91 | 1019.4 |
| 20260506114206 | 54 | 311 | 0.0 | 0.0 | 0.00 | 0.00 | 0.00 | 91 | 1019.4 |
| 20260506113705 | 54 | 311 | 0.0 | 0.0 | 0.00 | 0.00 | 0.00 | 91 | 1019.4 |
| 20260506113204 | 54 | 311 | 0.0 | 0.0 | 0.00 | 0.00 | 0.00 | 91 | 1019.4 |
| 20260506112704 | 54 | 311 | 0.0 | 0.0 | 0.00 | 0.00 | 0.00 | 90 | 1019.5 |
| 20260506111705 | 54 | 311 | 0.0 | 0.0 | 0.00 | 0.00 | 0.00 | 90 | 1019.5 |
| 20260506111206 | 54 | 311 | 0.0 | 0.0 | 0.00 | 0.00 | 0.00 | 90 | 1019.4 |
| 20260506110705 | 54 | 311 | 0.0 | 0.0 | 0.00 | 0.00 | 0.00 | 90 | 1019.4 |
| 20260506110204 | 54 | 311 | 0.0 | 0.0 | 0.00 | 0.00 | 0.00 | 90 | 1019.3 |
| 20260506105704 | 54 | 311 | 0.0 | 0.0 | 0.00 | 0.00 | 0.00 | 90 | 1019.4 |
| 20260506104704 | 54 | 311 | 0.0 | 0.0 | 0.00 | 0.00 | 0.00 | 90 | 1019.4 |
| 20260506104204 | 54 | 311 | 0.0 | 0.0 | 0.00 | 0.00 | 0.00 | 90 | 1019.3 |
| 20260506103704 | 54 | 311 | 0.0 | 3.0 | 0.00 | 0.00 | 0.00 | 90 | 1019.3 |
| 20260506103206 | 54 | 311 | 0.0 | 3.0 | 0.00 | 0.00 | 0.00 | 90 | 1019.4 |
| 20260506102705 | 54 | 311 | 1.0 | 3.0 | 0.00 | 0.00 | 0.00 | 90 | 1019.3 |
| 20260506102204 | 54 | 308 | 1.0 | 2.0 | 0.00 | 0.00 | 0.00 | 90 | 1019.4 |
| 20260506101704 | 54 | 19 | 0.0 | 2.0 | 0.00 | 0.00 | 0.00 | 90 | 1019.4 |
| 20260506101204 | 54 | 19 | 0.0 | 2.0 | 0.00 | 0.00 | 0.00 | 90 | 1019.3 |
| 20260506100704 | 54 | 19 | 0.0 | 2.0 | 0.00 | 0.00 | 0.00 | 90 | 1019.3 |
| 20260506100205 | 54 | 19 | 0.0 | 2.0 | 0.00 | 0.00 | 0.00 | 90 | 1019.3 |
| 20260506095704 | 54 | 19 | 0.0 | 3.0 | 0.00 | 0.00 | 0.00 | 90 | 1019.3 |
| 20260506095204 | 54 | 19 | 0.0 | 3.0 | 0.00 | 0.00 | 0.00 | 90 | 1019.4 |
| 20260506094705 | 54 | 19 | 1.0 | 3.0 | 0.00 | 0.00 | 0.00 | 90 | 1019.3 |
| 20260506094205 | 54 | 19 | 1.0 | 3.0 | 0.00 | 0.00 | 0.00 | 89 | 1019.3 |
| 20260506093704 | 54 | 19 | 1.0 | 2.0 | 0.00 | 0.00 | 0.00 | 89 | 1019.4 |